Total_Precipitation_Accumulation
0.23 0.20 0.24 0.25 0.26 0.23 0.22 0.23 0.28 0.28 0.29 0.31 0.37 0.37 0.43 0.61 1.00 1.26 0.64 0.61 0.89 0.62 0.06 0.03 0.24 0.55 0.64 0.50 0.66 1.41 1.33 0.65 0.49 1.23 1.13 1.37 2.03 1.83 1.94 1.26 1.27 1.61 1.61 1.04 0.79 1.02 1.29 0.93 0.71 0.72 0.63 0.28 0.26 0.46
0.30 0.26 0.23 0.21 0.19 0.19 0.21 0.22 0.27 0.30 0.35 0.38 0.39 0.41 0.43 0.48 0.76 1.11 0.52 0.37 0.76 0.90 0.14 0.02 0.10 0.19 0.31 0.22 0.34 0.47 0.84 0.90 0.84 2.15 2.27 1.79 2.14 2.36 1.63 1.48 1.01 1.33 1.47 1.82 1.75 1.37 1.21 1.18 1.39 1.30 0.85 0.69 0.65 0.54
0.31 0.20 0.17 0.17 0.17 0.19 0.19 0.23 0.28 0.32 0.35 0.35 0.30 0.31 0.40 0.45 0.73 0.99 0.48 0.34 0.75 0.58 0.10 0.01 0.05 0.05 0.05 0.05 0.13 0.53 0.49 0.51 0.63 1.00 1.64 2.07 2.74 2.84 2.36 1.58 1.57 1.54 1.09 0.97 1.66 1.39 1.09 1.42 1.31 0.90 0.76 0.83 1.15 0.79
0.20 0.13 0.16 0.18 0.17 0.19 0.18 0.23 0.25 0.31 0.32 0.23 0.21 0.27 0.32 0.42 0.55 0.64 0.40 0.26 0.40 0.53 0.29 0.02 0.02 0.02 0.02 0.03 0.08 0.16 0.24 0.22 0.33 0.78 1.47 1.63 2.03 2.54 1.72 1.91 2.30 2.11 2.29 1.83 1.18 0.97 1.49 1.71 1.88 1.66 1.39 1.15 1.25 0.97
0.16 0.15 0.19 0.21 0.25 0.18 0.15 0.19 0.27 0.27 0.18 0.14 0.17 0.24 0.28 0.35 0.42 0.37 0.26 0.20 0.29 0.59 0.37 0.04 0.08 0.04 0.02 0.04 0.11 0.16 0.19 0.33 0.55 0.68 0.76 0.88 1.12 1.86 1.87 1.93 2.48 2.65 1.93 1.84 2.24 1.99 1.96 2.11 2.14 2.26 1.92 2.12 2.14 2.31
0.15 0.17 0.25 0.24 0.22 0.13 0.16 0.22 0.23 0.18 0.12 0.10 0.15 0.21 0.24 0.24 0.30 0.24 0.32 0.25 0.23 0.43 0.60 0.11 0.14 0.15 0.11 0.19 0.44 0.47 0.44 0.53 0.75 0.80 0.83 0.86 0.93 2.47 3.16 3.01 2.67 2.34 2.40 2.40 3.27 3.03 2.12 2.10 1.93 1.81 1.91 2.50 2.30 1.85
0.17 0.25 0.28 0.27 0.28 0.16 0.19 0.17 0.15 0.10 0.07 0.11 0.16 0.15 0.15 0.15 0.20 0.31 0.36 0.32 0.18 0.35 0.62 0.30 0.50 0.57 0.38 0.20 0.35 0.60 0.48 0.58 0.91 1.28 1.16 1.50 1.44 2.84 3.03 4.42 4.20 3.28 2.33 2.13 1.59 2.26 2.75 1.79 1.83 2.39 2.02 2.00 2.37 2.23
0.22 0.29 0.36 0.33 0.23 0.16 0.16 0.13 0.10 0.06 0.05 0.07 0.05 0.05 0.07 0.13 0.16 0.21 0.25 0.37 0.33 0.47 0.55 0.49 0.56 1.40 0.60 0.55 0.60 0.53 0.74 0.94 1.11 1.71 1.93 2.87 2.81 3.79 4.39 4.53 5.04 3.78 2.09 1.52 1.60 1.48 1.66 2.37 3.00 2.96 2.96 3.00 3.58 3.61
0.32 0.35 0.35 0.33 0.18 0.14 0.11 0.08 0.06 0.04 0.03 0.01 0.01 0.03 0.05 0.06 0.13 0.26 0.47 0.52 0.46 0.57 0.94 0.78 1.02 2.46 1.68 1.15 1.29 1.41 1.61 2.20 2.13 2.59 3.19 4.35 5.99 7.74 7.14 5.45 5.28 4.60 3.18 1.89 1.49 2.38 1.83 1.90 2.47 2.26 2.88 2.96 3.04 3.42
0.52 0.60 0.59 0.41 0.16 0.13 0.10 0.09 0.06 0.03 0.00 0.00 0.00 0.05 0.41 0.22 0.17 0.35 0.67 0.76 0.89 0.66 0.62 0.59 0.63 1.17 1.23 1.76 2.59 3.69 3.16 2.67 3.33 3.46 3.57 4.96 6.75 7.41 7.15 5.86 4.83 4.82 4.82 3.25 2.29 3.08 3.04 2.94 3.01 2.12 2.21 2.86 3.03 2.66
0.50 0.47 0.37 0.23 0.15 0.14 0.11 0.06 0.05 0.03 0.00 0.04 0.13 0.39 0.31 0.10 0.27 0.79 1.52 1.58 1.40 1.37 1.42 1.09 1.32 1.80 1.17 2.65 3.19 3.46 3.73 3.86 4.67 4.19 4.69 5.14 8.77 9.10 6.89 6.47 5.78 5.47 5.26 3.78 3.07 3.86 2.88 3.25 3.29 2.74 2.78 2.60 3.42 3.52
0.47 0.32 0.26 0.17 0.16 0.16 0.12 0.10 0.10 0.03 0.02 0.06 0.12 0.18 0.14 0.38 0.88 1.57 2.04 2.99 3.53 3.74 3.00 2.56 2.06 1.31 1.54 1.84 3.14 3.39 4.45 3.87 4.32 3.90 4.92 7.01 8.59 7.58 7.44 6.95 6.76 6.29 5.93 5.51 4.93 4.85 3.80 3.32 3.12 2.80 3.49 2.88 3.13 3.14
0.23 0.19 0.15 0.15 0.14 0.10 0.11 0.11 0.10 0.08 0.06 0.09 0.28 0.79 0.89 0.99 1.45 2.29 3.21 3.78 4.85 3.27 2.63 2.16 2.51 1.97 1.87 2.23 3.17 3.87 3.52 2.89 2.44 3.74 5.76 7.81 6.61 5.94 6.12 5.51 5.15 5.18 5.21 4.87 4.23 4.02 3.47 3.56 3.85 3.90 4.49 4.62 3.93 3.34
0.16 0.15 0.11 0.09 0.07 0.09 0.12 0.11 0.11 0.09 0.06 0.27 0.84 0.94 1.15 1.66 1.90 2.24 2.72 2.60 2.57 2.03 1.33 1.36 1.72 1.66 1.71 1.98 2.10 2.71 2.29 2.22 2.78 3.84 6.18 5.89 5.28 4.14 3.23 2.71 2.77 2.89 2.79 3.04 3.49 3.72 3.59 3.19 3.53 3.53 3.93 4.41 3.27 2.77
0.15 0.14 0.15 0.07 0.07 0.13 0.16 0.13 0.13 0.10 0.12 0.43 1.23 1.72 1.23 1.17 1.32 1.32 1.24 1.39 1.38 0.89 0.70 1.09 1.48 1.47 1.98 2.15 1.58 1.62 1.89 3.09 4.15 6.21 6.31 5.09 3.97 3.41 2.38 2.06 1.71 2.03 2.10 2.08 1.74 1.78 2.18 2.13 2.23 2.76 3.08 3.01 3.16 3.64
0.16 0.11 0.12 0.08 0.13 0.16 0.23 0.24 0.22 0.20 0.22 0.31 0.64 0.75 0.65 0.69 0.88 0.95 1.29 0.99 0.58 0.80 1.16 1.64 2.32 2.99 3.25 1.94 2.10 2.08 2.64 5.43 6.30 4.77 3.65 3.14 2.86 3.32 2.61 1.98 1.89 1.96 2.32 1.71 1.82 1.71 1.47 1.20 1.41 1.45 1.62 1.81 1.87 2.16
0.34 0.17 0.14 0.11 0.16 0.29 0.25 0.20 0.41 0.50 0.44 0.49 0.25 0.22 0.35 0.71 0.98 0.85 0.97 1.30 1.00 1.38 2.60 2.99 3.72 3.23 3.11 3.49 3.84 4.08 6.25 6.85 3.55 2.54 2.99 2.69 2.85 3.66 3.73 3.66 2.66 1.58 1.35 1.19 1.52 1.43 1.62 1.99 1.93 1.63 1.72 1.72 1.55 1.38
0.42 0.47 0.26 0.16 0.22 0.28 0.30 0.37 0.78 0.88 0.48 0.21 0.27 0.27 0.39 0.84 0.62 0.71 0.88 0.99 1.18 2.10 2.67 2.84 2.73 2.87 3.83 4.48 6.25 5.64 3.83 3.10 2.04 2.86 2.93 2.62 2.38 2.26 2.33 2.27 2.07 1.69 1.14 1.13 0.85 1.10 1.61 2.06 2.48 2.35 1.93 1.47 1.79 1.91
0.67 0.88 0.62 0.35 0.46 0.70 0.76 0.64 0.79 0.81 0.15 0.22 0.48 0.48 0.72 0.69 0.39 0.81 0.86 0.73 1.03 1.14 1.95 2.54 2.86 3.12 3.54 3.22 3.49 3.35 2.95 3.02 2.34 2.64 1.93 2.01 1.65 1.43 1.45 1.34 1.81 2.26 1.56 1.37 1.07 1.24 1.51 1.30 1.60 1.68 1.69 1.61 1.47 1.52
0.61 0.82 0.61 0.67 0.71 0.84 1.17 0.98 0.81 0.85 0.47 0.44 0.46 0.59 0.90 0.68 0.56 0.60 0.70 0.47 1.07 1.91 2.42 2.52 3.19 2.56 1.94 1.72 1.53 1.89 2.05 2.55 2.91 2.84 2.64 2.29 1.63 1.55 1.75 1.98 2.09 1.60 1.49 1.25 1.36 1.10 1.31 1.58 1.59 1.88 1.82 1.74 1.82 1.60
0.61 0.88 0.86 0.81 1.01 0.73 0.78 0.93 1.01 0.47 0.32 0.38 0.46 0.68 0.65 0.74 0.85 0.97 0.92 0.77 1.54 2.06 2.03 1.70 1.83 1.77 1.50 1.89 1.56 1.49 1.81 2.14 2.90 3.09 2.75 2.66 1.68 1.35 2.08 2.71 2.87 1.78 1.96 2.32 1.92 1.70 1.44 1.35 1.31 1.57 1.72 1.65 1.56 1.43
0.87 1.19 1.41 0.99 1.22 1.16 0.50 0.16 0.31 0.40 0.34 0.37 0.57 0.53 0.85 1.08 1.19 1.09 1.31 1.79 2.17 2.16 2.14 2.16 1.92 2.01 2.26 2.11 1.61 1.75 2.00 1.94 1.72 2.20 2.17 1.01 1.29 1.77 2.23 2.36 2.27 2.23 2.31 2.62 2.69 2.14 2.08 0.95 0.79 1.00 0.78 0.90 0.82 0.74
1.44 1.46 1.66 1.46 1.16 0.76 0.26 0.23 0.58 0.53 0.99 0.95 0.54 0.81 1.01 1.33 1.12 0.76 1.80 1.90 2.03 1.56 1.75 2.04 1.99 2.11 2.10 1.85 1.84 1.82 1.59 1.89 2.16 1.97 1.76 1.50 1.57 1.84 1.82 2.37 2.42 2.27 2.65 3.37 3.13 2.84 1.94 1.04 0.71 0.75 0.87 0.91 0.91 0.87
1.22 1.40 1.54 1.40 0.78 0.40 0.46 0.70 0.80 1.07 0.96 1.00 1.09 1.43 1.26 1.48 1.51 1.89 2.19 3.36 2.93 2.04 2.34 2.13 1.99 2.05 1.92 1.96 2.05 1.84 1.67 1.40 1.33 1.47 1.45 1.21 1.67 2.34 2.07 2.19 2.00 1.84 2.33 2.93 2.80 2.43 2.23 1.59 1.12 1.17 1.22 1.22 1.18 1.52
1.88 0.94 0.81 0.59 0.54 0.83 0.84 0.90 0.90 0.92 1.03 0.87 1.22 1.60 1.47 1.86 3.11 2.91 3.10 4.34 3.86 3.47 2.34 1.88 1.32 0.97 0.92 0.94 1.05 1.04 1.17 1.55 1.51 1.67 1.39 1.40 1.51 1.37 1.45 1.73 1.76 1.86 1.87 1.80 2.12 1.73 1.49 1.35 1.68 1.62 1.54 1.56 1.41 1.05
1.28 0.58 0.46 0.53 0.70 0.62 0.92 1.46 2.04 1.44 1.09 1.35 1.16 1.40 1.39 2.30 2.89 3.77 4.93 5.05 4.66 3.07 2.31 1.64 1.23 1.66 1.66 0.94 1.02 1.13 1.18 0.88 0.84 1.83 1.33 0.90 0.75 1.06 1.38 1.35 1.31 1.25 1.03 0.92 0.84 0.81 0.73 0.57 0.56 0.66 0.78 1.16 1.62 1.27
0.67 0.60 0.45 0.30 0.74 0.95 1.16 1.67 1.39 1.26 1.62 1.49 1.84 2.22 2.17 3.16 4.53 5.38 4.44 2.67 2.09 1.88 1.19 1.09 0.91 0.93 1.10 0.97 1.09 1.26 1.04 1.16 1.52 1.49 0.89 0.78 0.75 0.54 0.42 0.36 0.35 0.23 0.17 0.22 0.31 0.37 0.31 0.30 0.31 0.35 0.40 0.45 0.73 0.92
0.61 0.79 0.78 1.04 0.59 0.66 1.19 1.22 1.19 1.30 1.30 1.35 2.06 2.71 3.01 4.38 5.18 3.83 3.01 1.57 1.16 0.93 1.05 0.90 0.65 0.58 0.66 0.69 1.08 0.98 0.71 0.85 0.68 0.41 0.31 0.22 0.09 0.04 0.02 0.01 0.00 0.02 0.00 0.02 0.05 0.09 0.10 0.11 0.14 0.15 0.21 0.19 0.24 0.27
0.33 0.30 0.32 0.46 0.47 0.58 0.69 1.05 1.13 1.20 1.26 1.59 2.94 3.23 2.87 3.35 2.95 2.71 1.91 1.13 0.74 0.64 0.60 0.78 1.02 0.67 0.96 0.47 0.35 0.36 0.26 0.29 0.53 0.36 0.17 0.09 0.01 0.02 0.00 0.01 0.01 0.04 0.00 0.00 0.01 0.02 0.02 0.01 0.01 0.06 0.14 0.13 0.16 0.13
0.20 0.11 0.21 0.25 0.35 0.58 0.90 0.76 0.65 0.44 0.42 0.69 1.38 2.03 2.83 3.28 2.92 1.96 1.64 1.20 1.01 0.77 0.59 0.60 0.68 0.61 0.83 0.47 0.28 0.13 0.14 0.15 0.18 0.13 0.04 0.04 0.02 0.01 0.00 0.01 0.02 0.02 0.01 0.01 0.00 0.00 0.00 0.00 0.00 0.02 0.04 0.08 0.11 0.13
0.12 0.14 0.15 0.14 0.32 0.62 0.90 0.46 0.37 0.56 0.91 1.23 1.86 3.10 3.05 2.74 2.92 2.07 1.24 0.76 0.55 0.47 0.37 0.38 0.32 0.28 0.22 0.26 0.17 0.13 0.18 0.13 0.13 0.08 0.04 0.06 0.02 0.00 0.00 0.00 0.01 0.03 0.04 0.02 0.01 0.00 0.00 0.02 0.03 0.05 0.04 0.03 0.03 0.03
0.16 0.13 0.24 0.55 0.82 0.73 0.58 0.84 1.26 1.92 2.19 2.58 2.94 3.34 2.97 3.71 4.20 2.26 1.01 0.70 0.73 0.71 0.51 0.45 0.64 0.84 0.41 0.18 0.15 0.14 0.16 0.09 0.09 0.05 0.02 0.04 0.01 0.00 0.00 0.00 0.00 0.00 0.00 0.01 0.02 0.02 0.02 0.01 0.01 0.01 0.01 0.02 0.05 0.04
0.63 0.47 0.54 0.52 0.83 1.16 1.26 2.42 3.08 3.11 2.74 3.02 3.75 3.10 2.34 2.19 2.17 1.27 0.82 0.61 0.71 0.81 0.81 0.71 1.02 0.51 0.16 0.11 0.36 0.16 0.09 0.08 0.06 0.03 0.04 0.01 0.00 0.00 0.00 0.00 0.00 0.00 0.00 0.01 0.02 0.01 0.02 0.02 0.03 0.04 0.06 0.08 0.13 0.19